Regional Weather Roundup
Issued by NWS

Home | Current Version | Previous Version | Graphics & Text | Print | Product List | Glossary On
Versions: 1 2 3 4 5 6 7 8 9 10 11 12 13 14 15 16 17 18 19 20 21 22 23 24 25 26 27 28 29 30 31 32 33 34 35 36 37 38 39 40 41 42 43 44 45 46 47 48 49 50
000
ASUS43 KMKX 032259
RWRWI

WISCONSIN REGIONAL WEATHER ROUNDUP
NATIONAL WEATHER SERVICE MILWAUKEE/SULLIVAN WI
500 PM CST TUE MAR 03 2015

NOTE: "FAIR" INDICATES FEW OR NO CLOUDS BELOW 12,000 FEET WITH NO
SIGNIFICANT WEATHER AND/OR OBSTRUCTIONS TO VISIBILITY.

WIZ001-002-006>008-014>016-023>028-040000-
NORTHWEST WISCONSIN

CITY           SKY/WX    TMP DP  RH WIND       PRES   REMARKS
SUPERIOR ARPT  CLEAR     22   7  53 NW17      29.68R WCI   7
ASHLAND        CLOUDY    24  12  60 W13G30    29.63R WCI  12
HAYWARD        CLOUDY    25  11  55 VRB6G16   29.62R WCI  18
SIREN          CLEAR     25   6  43 N15G24    29.68R WCI  13
CUMBERLAND     MIX PCPN  27  12  54 NW13G22   29.64S WCI  16
RICE LAKE      MOCLDY    28  15  58 W17G23    29.67R WCI  15
CHETEK         CLOUDY    27  19  70 W10G22    29.65R WCI  18
LADYSMITH      CLOUDY    28  19  71 W16       29.62R WCI  15
EAU CLAIRE     NOT AVBL
MENOMONIE      CLOUDY    28  19  68 W17G24    29.69R WCI  16
NEW RICHMOND   CLEAR     25  11  54 NW18G26   29.70R WCI  12
OSCEOLA        CLEAR     26  10  51 W21G26    29.74R WCI  12
$$

WIZ003>005-009-010-017-018-040000-
NORTH CENTRAL WISCONSIN

CITY           SKY/WX    TMP DP  RH WIND       PRES   REMARKS
MANITOWISH WTR LGT SNOW  24  19  80 W15G21    29.52R WCI  11
ARBOR VITAE    LGT SNOW  25  19  78 W7        29.52R WCI  17
WOODRUFF       LGT SNOW  25  19  78 W7        29.52R WCI  17
RHINELANDER    CLOUDY    24  17  74 W12G21    29.53R WCI  13
EAGLE RIVER    FLURRIES  24  16  71 W14       29.49S WCI  12
LAND O LAKES   FLURRIES  25  19  77 W8        29.50R WCI  16
PHILLIPS       CLOUDY    25  18  74 W8        29.57R WCI  16
TOMAHAWK       CLOUDY    26  18  72 W10G17    29.55R WCI  15
MEDFORD        CLOUDY    26  19  74 W15G23    29.58R WCI  13
MERRILL        MOCLDY    27  19  73 W8G16     29.56R WCI  18
$$

WIZ029-030-035-036-043>047-040000-
CENTRAL WISCONSIN

CITY           SKY/WX    TMP DP  RH WIND       PRES   REMARKS
WAUSAU         CLOUDY    26  20  77 W14       29.57R WCI  14
MOSINEE        CLOUDY    27  21  80 W15       29.59R WCI  15
MARSHFIELD     CLOUDY    28  20  71 W13       29.62R WCI  17
STEVENS POINT  CLOUDY    26  19  75 W8        29.60R WCI  18
WAUPACA        CLOUDY    30  22  72 W10       29.61R WCI  21
WAUTOMA        NOT AVBL
WISC RAPIDS    CLOUDY    29  19  66 W12G21    29.64R WCI  19
CAMP DOUGLAS   NOT AVBL
$$

WIZ011>013-019>022-031-037>040-048>050-040000-
NORTHEAST WISCONSIN

CITY           SKY/WX    TMP DP  RH WIND       PRES   REMARKS
ANTIGO         CLOUDY    26  18  73 W16G25    29.53R WCI  13
SHAWANO        CLOUDY    31  20  65 W7        29.57S WCI  24
OCONTO         PTCLDY    28  21  74 W13       29.56R WCI  18
STURGEON BAY   CLEAR     27  19  74 W12       29.56S WCI  16
GREEN BAY      MOCLDY    28  21  75 W14       29.60R WCI  17
MANITOWOC      NOT AVBL
APPLETON       CLOUDY    27  19  74 W13       29.61R WCI  16
CLINTONVILLE   CLOUDY    30  19  64 W15G21    29.59R WCI  19
OSHKOSH        CLOUDY    28  21  75 W13       29.63R WCI  17
$$

WIZ032>034-041-042-053>061-040000-
SOUTHWEST WISCONSIN

CITY           SKY/WX    TMP DP  RH WIND       PRES   REMARKS
LA CROSSE      CLOUDY    32  22  66 W16       29.71R WCI  21
SPARTA         CLOUDY    30  22  72 W9        29.69R WCI  22
VIROQUA        CLOUDY    29  24  79 W16       29.68R WCI  17
BOSCOBEL       CLOUDY    33  23  66 VRB7      29.71R WCI  27
PRAIRIE DU CHI CLOUDY    32  23  69 NW16      29.73R WCI  21
PLATTEVILLE    CLOUDY    31  25  78 W9G17     29.69R WCI  23
$$

WIZ056-057-062-063-064-067-068-040000-
SOUTH CENTRAL WISCONSIN

CITY           SKY/WX    TMP DP  RH WIND       PRES   REMARKS
REEDSBURG      CLOUDY    29  24  79 W13       29.67R WCI  19
BARABOO/DELLS  CLOUDY    29  22  74 W9        29.67R WCI  21
LONE ROCK      NOT AVBL
MINERAL POINT  CLOUDY    32  27  80 W10G17    29.67R WCI  24
MADISON        CLOUDY    30  23  75 NW7       29.67R WCI  23
MIDDLETON      CLOUDY    32  24  74 W13       29.68R WCI  22
WATERTOWN      CLOUDY    30  26  83 W15       29.65R WCI  19
MONROE         CLOUDY    32  28  86 W15G21    29.66S WCI  22
JANESVILLE     CLOUDY    34  27  75 W10       29.68R WCI  26
$$

WIZ051-052-058>065-066-070>072-040000-
SOUTHEAST WISCONSIN

CITY           SKY/WX    TMP DP  RH WIND       PRES   REMARKS
MILWAUKEE      CLOUDY    32  23  69 W15G23    29.66R WCI  22
WAUKESHA       CLOUDY    28  25  86 W16G23    29.65R WCI  17
MILWAUKEE/TIMM CLOUDY    30  23  74 W13G20    29.65R WCI  20
RACINE         CLOUDY    33  26  75 W10       29.67R WCI  25
BURLINGTON     CLOUDY    31  26  81 W9        29.66R WCI  23
KENOSHA        CLOUDY    33  28  81 W10       29.66R WCI  25
FOND DU LAC    CLOUDY    29  21  72 W15       29.64R WCI  18
SHEBOYGAN      CLOUDY    28  21  75 W15       29.62R WCI  16
WEST BEND      CLOUDY    30  23  74 W17       29.62R WCI  18
JUNEAU         CLOUDY    29  23  80 W8G17     29.66R WCI  21
$$

LSZ147-162-040000-
LAKE SUPERIOR

STATION/POSITION TIME  TEMP    WIND        PRES    WAVE
                       AIR SEA DIR/SP/G            HT/PER
                 (UTC) (F)     (DEG/KT/KT) (MB)    (FT/S)
DEVILS ISLAND    2200   26     290/ 28/ 32 1002.0R
PORT WING        2200   24     280/ 23     1003.4R
SAXON HARBOR     2220   27     280/  7/ 19 1002.4R
$$

LMZ867-665-643>646-040000-
LAKE MICHIGAN

STATION/POSITION TIME  TEMP    WIND        PRES    WAVE
                       AIR SEA DIR/SP/G            HT/PER
                 (UTC) (F)     (DEG/KT/KT) (MB)    (FT/S)
NORTHPORT PIER   2200   29     280/  6/ 12  999.7R
SISTER BAY       2243   29     300/  8/  9   N/A
KEWAUNEE LAKESHO 2200   28     290/ 11/ 19 1000.2R
SHEBOYGAN LAKESH 2200   30     280/  6/  8 1003.3R
PORT WASHINGTON  2200   31     300/  4/  7 1003.7R
MILWAUKEE LAKESH 2200   33     290/ 13/ 23   N/A
KENOSHA   LAKESH 2200   33     280/ 10/ 17 1004.1R
$$

TC  - TEMPERATURE IN CELSIUS
VSB - VISIBILITY IN STATUTE MILES
WCI - WIND CHILL INDEX
HX  - HEAT INDEX



USA.gov is the U.S. government's official web portal to all federal, state and local government web resources and services.